[[[{"header":{"parameterUnit":"kt","parameterCategory":2,"dx":1,"dy":1,"la1":30.253999710083008,"la2":30.299108505249023,"lo1":-89.0895004272461,"lo2":-89.04439544677734,"nx":28,"ny":28,"refTime":"2022-10-16T21:00:00:Z","depth":0,"parameterNumber":1,"parameterNumberName":"U-component_of_WINDS"},"data":[-1.1962,-1.2037,-1.2037,-1.2124,-1.2138,-1.2198,-1.222,-1.2248,-1.227,-1.2342,-1.2384,-1.2393,-1.2417,-1.2467,-1.2513,-1.2517,-1.2538,-1.2564,-1.2564,-1.2443,-1.2427,-1.2411,-1.2394,-1.2567,-1.2567,-1.2689,-1.269,-1.2691,-1.1874,-1.1889,-1.1934,-1.1978,-1.2018,-1.1992,-1.2026,-1.2061,-1.2115,-1.2143,-1.2184,-1.2248,-1.2299,-1.2314,-1.2364,-1.2401,-1.2393,-1.2414,-1.2414,-1.2418,-1.2289,-1.227,-1.242,-1.242,-1.242,-1.242,-1.242,-1.242,-1.1714,-1.1759,-1.1786,-1.1835,-1.1857,-1.1887,-1.1931,-1.194,-1.1985,-1.2036,-1.2027,-1.209,-1.2119,-1.2179,-1.22,-1.2249,-1.2226,-1.225,-1.2257,-1.2264,-1.2272,-1.2101,-1.2257,-1.2256,-1.2256,-1.2256,-1.2255,0,-1.1598,-1.1595,-1.1638,-1.1682,-1.1718,-1.1752,-1.1784,-1.1811,-1.1805,-1.1843,-1.1898,-1.193,-1.1994,-1.2047,-1.2093,-1.211,-1.2091,-1.2088,-1.2105,-1.2112,-1.2112,-1.2116,-1.1908,-1.2084,-1.2083,-1.2082,-1.2081,-1.208,-1.144,-1.1491,-1.1519,-1.155,-1.1567,-1.1616,-1.1646,-1.1638,-1.167,-1.1708,-1.1749,-1.1801,-1.1843,-1.1932,-1.1944,-1.1992,-1.1984,-1.2051,-1.1991,-1.1995,-1.1989,-1.1987,-1.1993,-1.2065,-1.2067,-1.2068,-1.2069,0,-1.1351,-1.1351,-1.1431,-1.1454,-1.1461,-1.1516,-1.1537,-1.1581,-1.1585,-1.1648,-1.1663,-1.167,-1.1725,-1.1726,-1.1789,-1.1788,-1.1882,-1.1871,-1.1872,-1.1871,-1.1934,-1.1929,-1.2132,-1.2159,-1.1976,-1.1978,-1.1979,0,-1.1218,-1.1286,-1.1282,-1.1329,-1.1404,-1.1394,-1.147,-1.1481,-1.1505,-1.1555,-1.153,-1.1578,-1.1571,-1.1619,-1.1618,-1.1694,-1.1705,-1.171,-1.171,-1.1714,-1.1714,-1.1735,-1.1728,-1.1703,-1.1702,-1.1701,-1.17,0,-1.1082,-1.1159,-1.1234,-1.1252,-1.1284,-1.1319,-1.1335,-1.1362,-1.1392,-1.143,-1.145,-1.1495,-1.1521,-1.1557,-1.1556,-1.1515,-1.1648,-1.1592,-1.1654,-1.1655,-1.1686,-1.1685,-1.1861,-1.1699,-1.1698,-1.1698,-1.1698,0,-1.0975,-1.1013,-1.1121,-1.1147,-1.1168,-1.1218,-1.1262,-1.1304,-1.1335,-1.1337,-1.1367,-1.1352,-1.1417,-1.1362,-1.1452,-1.14,-1.1427,-1.1437,-1.1442,-1.1451,-1.139,-1.1493,-1.1657,-1.1676,-1.1455,-1.1453,-1.1451,0,-1.0821,-1.093,-1.0922,-1.1025,-1.1076,-1.1046,-1.1101,-1.1128,-1.1135,-1.118,-1.1188,-1.124,-1.1199,-1.1215,-1.1259,-1.1271,-1.1338,-1.1261,-1.133,-1.1333,-1.1326,-1.1477,-1.1503,-1.162,-1.1425,-1.1428,-1.143,0,-1.0702,-1.0739,-1.0758,-1.0779,-1.0812,-1.0854,-1.0917,-1.0965,-1.0996,-1.1028,-1.1083,-1.1153,-1.1126,-1.1154,-1.1147,-1.1193,-1.1292,-1.1157,-1.1158,-1.1184,-1.1411,-1.1436,-1.1455,-1.1278,-1.1281,-1.1283,-1.1409,0,-1.0546,-1.06,-1.065,-1.0695,-1.0728,-1.0792,-1.0792,-1.0826,-1.0815,-1.0822,-1.09,-1.0923,-1.0974,-1.0995,-1.0986,-1.109,-1.1073,-1.1043,-1.0992,-1.109,-1.1132,-1.1149,-1.093,-1.0928,-1.0927,-1.0926,0,0,-1.0401,-1.0478,-1.0467,-1.0527,-1.0554,-1.0522,-1.0591,-1.0613,-1.066,-1.068,-1.0651,-1.0756,-1.0776,-1.0871,-1.0902,-1.0921,-1.0941,-1.0907,-1.1043,-1.1056,-1.1068,-1.1112,-1.113,-1.0924,-1.0923,-1.0923,-1.0922,0,-1.0344,-1.0363,-1.043,-1.0452,-1.0485,-1.0488,-1.0504,-1.0532,-1.0539,-1.0615,-1.059,-1.0636,-1.072,-1.0746,-1.077,-1.0894,-1.0874,-1.0909,-1.0977,-1.103,-1.1044,-1.1057,-1.1104,-1.1121,-1.0919,-1.0919,-1.092,0,-1.023,-1.0249,-1.0281,-1.0338,-1.036,-1.0413,-1.0358,-1.0415,-1.0455,-1.0419,-1.0495,-1.0508,-1.0543,-1.0631,-1.0671,-1.0646,-1.0813,-1.076,-1.0768,-1.0773,-1.0825,-1.0843,-1.0858,-1.0652,-1.0651,-1.065,0,0,-1.0181,-1.023,-1.0249,-1.0326,-1.0341,-1.0347,-1.0375,-1.0368,-1.0398,-1.041,-1.0427,-1.0458,-1.0507,-1.0539,-1.0585,-1.0682,-1.069,-1.0727,-1.0739,-1.075,-1.0761,-1.0815,-1.0832,-1.0647,-1.0647,-1.0646,0,0,-1.0159,-1.0183,-1.0167,-1.0256,-1.0285,-1.031,-1.0358,-1.0339,-1.038,-1.0373,-1.0364,-1.0372,-1.0455,-1.0469,-1.0422,-1.0567,-1.0516,-1.0527,-1.0555,-1.0571,-1.0584,-1.058,-1.0371,0,0,0,0,0,-1.0102,-1.018,-1.0165,-1.018,-1.0253,-1.0318,-1.0327,-1.0321,-1.0285,-1.0323,-1.0334,-1.031,-1.0442,-1.04,-1.0415,-1.0469,-1.0601,-1.0609,-1.0617,-1.0675,-1.0692,-1.0706,0,0,0,0,0,0,-1.0107,-1.0126,-1.0163,-1.0191,-1.0207,-1.0315,-1.0253,-1.0253,-1.0281,-1.0275,-1.0308,-1.0311,-1.0308,-1.0391,-1.0406,-1.0457,-1.0366,-1.0604,-1.0611,-1.0617,-1.0681,-1.0695,-1.0706,0,0,0,0,0,-1.0112,-1.0127,-1.0246,-1.0189,-1.0204,-1.0214,-1.0249,-1.0249,-1.0271,-1.0289,-1.029,-1.0264,-1.0309,-1.0321,-1.04,-1.0451,-1.0356,-1.0361,-1.0609,-1.0614,-1.0619,-1.0688,0,0,0,0,0,0,-1.0115,-1.0128,-1.0249,-1.0253,-1.0159,-1.0208,-1.0216,-1.0246,-1.0283,-1.0285,-1.0244,-1.0239,-1.0311,-1.032,-1.0329,-1.0449,-1.0348,-1.0353,-1.0357,-1.0613,-1.0617,-1.0621,0,0,0,0,0,0,-1.012,-1.0131,-1.0251,-1.0213,-1.0213,-1.0203,-1.0209,-1.0275,-1.0284,-1.0236,-1.0232,-1.0241,-1.0298,-1.032,-1.0327,-1.043,-1.0342,-1.0347,-1.0351,-1.0353,-1.0616,-1.062,0,0,0,0,0,0,-1.0125,-1.0135,-1.0212,-1.0212,-1.0211,-1.0258,-1.0261,-1.0337,-1.025,-1.0235,-1.0242,-1.0238,-1.0299,-1.0306,-1.0325,-1.0426,-1.0429,-1.0342,-1.0346,-1.0348,-1.035,0,0,0,0,0,0,0,-1.0128,-1.0062,-1.0224,-1.0211,-1.021,-1.0292,-1.0293,-1.0294,-1.0249,-1.0246,-1.0243,-1.024,-1.0312,-1.0318,-1.0324,-1.0422,0,0,-1.0342,-1.0344,0,0,0,0,0,0,0,0,-1.0058,-1.0061,-1.0224,-1.0225,-1.0225,-1.0292,-1.0293,-1.0294,-1.0249,-1.0246,-1.0244,-1.0241,-1.0314,-1.0318,-1.0323,0,0,0,0,0,0,0,0,0,0,0,0,0,0,0,-1.0224,-1.0224,0,-1.0292,-1.0293,-1.0293,-1.0248,-1.0246,-1.0244,-1.0242,-1.0315,-1.0319,-1.0323,0,0,0,0,0,0,0,0,0,0,0,0,0,0,0,0,0,0,0,0,0,0,0,0,0,0,0,0,0,0,0,0,0,0,0,0,0,0,0,0,0,0,0,0,0,0,0,0,0,0,0,0,0,0,0,0,0,0,0,0,0,0,0,0,0,0,0,0,0]}],[{"header":{"parameterUnit":"kt","parameterCategory":2,"dx":1,"dy":1,"la1":30.253999710083008,"la2":30.299108505249023,"lo1":-89.0895004272461,"lo2":-89.04439544677734,"nx":28,"ny":28,"refTime":"2022-10-16T21:00:00:Z","depth":0,"parameterNumber":2,"parameterNumberName":"V-component_of_WINDS"},"data":[2.8353,2.8412,2.844,2.8519,2.8558,2.8617,2.8647,2.8689,2.8729,2.8803,2.885,2.8883,2.8934,2.8997,2.9049,2.9063,2.9083,2.9084,2.91,2.9071,2.9069,2.9067,2.9055,2.9088,2.9088,2.9126,2.9126,2.9127,2.8331,2.8369,2.8419,2.8487,2.853,2.8546,2.8601,2.8636,2.8688,2.8738,2.8786,2.8853,2.8909,2.8961,2.902,2.9048,2.9058,2.9061,2.906,2.9067,2.9038,2.9025,2.9052,2.9052,2.9052,2.9052,2.9052,2.9052,2.8297,2.8331,2.8388,2.8443,2.8484,2.8529,2.8566,2.8607,2.8656,2.8721,2.8744,2.8804,2.8859,2.8943,2.8978,2.9025,2.9026,2.9038,2.9041,2.9043,2.9042,2.8985,2.9036,2.9036,2.9036,2.9036,2.9036,0,2.8281,2.8301,2.8351,2.841,2.8451,2.8499,2.8547,2.8571,2.8624,2.8663,2.8721,2.8759,2.8834,2.8891,2.8952,2.8986,2.9006,2.9011,2.9019,2.9009,2.8992,2.9002,2.8952,2.9009,2.9009,2.9009,2.9009,2.9009,2.8249,2.8285,2.8358,2.8389,2.8422,2.8472,2.8507,2.8552,2.8587,2.8653,2.8681,2.8739,2.8788,2.8876,2.8922,2.8978,2.8988,2.9006,2.8996,2.8985,2.8988,2.8986,2.899,2.9007,2.9007,2.9008,2.9008,0,2.8228,2.8273,2.8338,2.8407,2.8425,2.8461,2.8519,2.8555,2.859,2.8644,2.8659,2.8715,2.8771,2.8815,2.8887,2.8908,2.8967,2.8976,2.8949,2.8953,2.8974,2.8971,2.9036,2.9046,2.9012,2.9013,2.9013,0,2.8218,2.8264,2.8329,2.8364,2.8416,2.846,2.851,2.8546,2.8594,2.8637,2.8667,2.8706,2.8756,2.8802,2.8833,2.889,2.8903,2.8922,2.893,2.892,2.8917,2.8938,2.8937,2.8946,2.8946,2.8945,2.8945,0,2.8181,2.8269,2.8327,2.8354,2.8431,2.8458,2.8491,2.8545,2.8579,2.863,2.8653,2.8709,2.8739,2.8782,2.8822,2.8813,2.8892,2.8888,2.8911,2.891,2.8926,2.8924,2.8971,2.8944,2.8944,2.8944,2.8944,0,2.818,2.8231,2.8308,2.8373,2.8394,2.8432,2.8491,2.8533,2.8588,2.861,2.8651,2.8676,2.8728,2.8722,2.8795,2.8773,2.8801,2.8825,2.8827,2.8834,2.8825,2.8845,2.8885,2.8891,2.8841,2.884,2.884,0,2.8125,2.8215,2.8252,2.8324,2.8372,2.8403,2.8445,2.8493,2.8526,2.8571,2.8608,2.8658,2.8662,2.8684,2.8715,2.8754,2.8783,2.8752,2.8815,2.8817,2.88,2.8837,2.8832,2.8872,2.8829,2.883,2.8831,0,2.8088,2.8182,2.8192,2.8225,2.8295,2.8334,2.8383,2.8443,2.8471,2.8521,2.8563,2.8635,2.8641,2.8677,2.8702,2.8732,2.8765,2.8734,2.8736,2.8738,2.8828,2.8823,2.8829,2.8776,2.8777,2.8778,2.8823,0,2.8077,2.8127,2.8156,2.8227,2.8265,2.8312,2.8359,2.8392,2.8414,2.8448,2.851,2.856,2.862,2.8639,2.8659,2.8713,2.8711,2.8716,2.8712,2.8737,2.8752,2.8759,2.8685,2.8685,2.8686,2.8686,0,0,2.8013,2.8086,2.8126,2.8175,2.8209,2.824,2.8286,2.8323,2.8396,2.8418,2.8417,2.8525,2.8565,2.8636,2.8647,2.8671,2.8685,2.8674,2.8725,2.8729,2.8733,2.8749,2.8755,2.8686,2.8686,2.8686,2.8686,0,2.8019,2.806,2.8105,2.8145,2.8205,2.8239,2.825,2.8315,2.8339,2.84,2.8424,2.8467,2.8551,2.8591,2.8622,2.8667,2.8682,2.8682,2.8691,2.8724,2.8728,2.8732,2.8748,2.8754,2.8686,2.8686,2.8686,0,2.7991,2.8039,2.8065,2.8144,2.8184,2.8231,2.8239,2.8289,2.8325,2.8355,2.8415,2.8448,2.8505,2.8566,2.8595,2.8594,2.8678,2.8659,2.8659,2.8663,2.8698,2.8703,2.8707,2.8651,2.8651,2.8651,0,0,2.7989,2.8036,2.8101,2.8149,2.8172,2.8223,2.8252,2.8277,2.8327,2.8347,2.8391,2.8439,2.8489,2.852,2.8569,2.8629,2.8644,2.8653,2.8654,2.8656,2.866,2.8695,2.87,2.865,2.865,2.865,0,0,2.7988,2.8065,2.8078,2.814,2.8187,2.8254,2.8282,2.8299,2.8348,2.8347,2.839,2.8405,2.8462,2.8494,2.8473,2.8568,2.8564,2.857,2.8545,2.8548,2.855,2.8541,2.8487,0,0,0,0,0,2.8017,2.8056,2.8066,2.8084,2.8183,2.8248,2.8261,2.8298,2.8294,2.8315,2.8354,2.8368,2.8492,2.8474,2.849,2.8513,2.8635,2.8637,2.864,2.8623,2.8626,2.8627,0,0,0,0,0,0,2.8024,2.8045,2.8066,2.8133,2.8156,2.8247,2.8249,2.826,2.8293,2.8294,2.836,2.837,2.8402,2.8468,2.8482,2.8503,2.8482,2.8636,2.8638,2.864,2.8624,2.8626,2.8628,0,0,0,0,0,2.803,2.8047,2.8196,2.8133,2.8153,2.8211,2.8247,2.8257,2.8283,2.8343,2.8353,2.8307,2.8402,2.8416,2.8477,2.8496,2.8473,2.8478,2.8637,2.8639,2.8641,2.8625,0,0,0,0,0,0,2.8034,2.8056,2.8201,2.8208,2.8121,2.8206,2.8221,2.8254,2.833,2.8341,2.8292,2.8292,2.8402,2.8413,2.8424,2.8491,2.8465,2.847,2.8474,2.8638,2.864,2.8641,0,0,0,0,0,0,2.8047,2.8062,2.8205,2.8188,2.8193,2.8202,2.8215,2.8272,2.833,2.8275,2.8277,2.8291,2.8385,2.8411,2.842,2.8507,2.8459,2.8464,2.8468,2.847,2.864,2.8641,0,0,0,0,0,0,2.8054,2.8067,2.8186,2.819,2.8195,2.8281,2.8253,2.8352,2.8316,2.8271,2.8314,2.8313,2.8383,2.8393,2.8417,2.85,2.8505,2.8459,2.8463,2.8465,2.8467,0,0,0,0,0,0,0,2.806,2.7965,2.8157,2.8193,2.8197,2.8276,2.8278,2.828,2.8316,2.8315,2.8314,2.8313,2.8431,2.8436,2.8442,2.8494,0,0,2.8459,2.8461,0,0,0,0,0,0,0,0,2.7961,2.7964,2.8158,2.8159,2.8161,2.8277,2.8278,2.828,2.8316,2.8315,2.8314,2.8314,2.8432,2.8437,2.8441,0,0,0,0,0,0,0,0,0,0,0,0,0,0,0,2.8158,2.8159,0,2.8277,2.8278,2.828,2.8316,2.8315,2.8314,2.8314,2.8433,2.8437,2.8441,0,0,0,0,0,0,0,0,0,0,0,0,0,0,0,0,0,0,0,0,0,0,0,0,0,0,0,0,0,0,0,0,0,0,0,0,0,0,0,0,0,0,0,0,0,0,0,0,0,0,0,0,0,0,0,0,0,0,0,0,0,0,0,0,0,0,0,0,0]}]]]